sat.trackr.live / text

‹ back to catalog

STARLINK-33875

NORAD 63789 · 2025-091Q

PAYLOAD ACTIVE UNKNOWN

§ Identity

Operator
Country
US
Launch date
2025-05-02
Launch site
AFETR
Launch vehicle
Mass (kg)
RCS (m²)

Purposes: comms

External: N2YO · Heavens-Above · Gunter

§ Orbital elements

Epoch: 2026-09-20T16:02:57.132384Z

Period
94.27 min
Inclination
43.0085°
Eccentricity
0.0001927
Mean motion
15.27581609 rev/d
Perigee alt
481.7 km
Apogee alt
484.4 km
Semi-major
6,861.2 km
B*
5.0649e-4
RAAN
31.2165°
Arg perigee
295.9550°
Mean anomaly
64.1103°
Rev number
7,872

§ Raw data

STARLINK-338751 63789U 25091Q   26263.66871681  .00013702  00000+0  50649-3 0  99912 63789  43.0085  31.2165 0001927 295.9550  64.1103 15.27581609 78720

JSON: /api/v1/satellites/63789 · /tle

For live sub-satellite position, see the globe view (requires WebGL).

§ Visibility from observer

Set your observer location to see the next 7 days of passes ≥ 10°. The values pass through the URL so the page stays shareable.

No JS? Fill the form by hand. The geolocation button needs JavaScript.